Terminal Aerodrome Forecast
Issued by NWS Miami, FL

Home | Current Version | Previous Version | Text Only | Print | Product List | Glossary On
Versions: 1 2 3 4 5 6 7 8 9 10 11 12 13 14 15 16 17 18 19 20 21 22 23 24 25 26 27 28 29 30 31 32 33 34 35 36 37 38 39 40 41 42 43 44
000
FTUS42 KMFL 240539
TAFAPF
TAF
KAPF 240539Z 2406/2506 VRB04KT P6SM FEW030 SCT070 BKN250
     FM241400 09006KT P6SM SCT030 SCT250
     FM241700 28009KT P6SM VCSH SCT030 SCT050 SCT250
     FM250000 07008KT P6SM FEW030 SCT100 SCT250=

USA.gov is the U.S. government's official web portal to all federal, state and local government web resources and services.